| time (UTC) | temp F | wind direction | speed MPH | gust MPH | rain 1hr in | rain 24hr in | rain mn in | humidity % | barometer mb |
| 20260504110518 | 59 | 189 | 2.0 | 5.0 | 0.00 | 0.00 | 0.00 | 70 | 1012.3 |
| 20260504100516 | 60 | 206 | 2.0 | 6.0 | 0.00 | 0.00 | 0.00 | 66 | 1012.2 |
| 20260504081518 | 61 | 205 | 2.0 | 6.0 | 0.00 | 0.00 | 0.00 | 60 | 1012.3 |
| 20260504081018 | 61 | 218 | 4.0 | 8.0 | 0.00 | 0.00 | 0.00 | 60 | 1012.3 |
| 20260504080558 | 62 | 202 | 2.0 | 5.0 | 0.00 | 0.00 | 0.00 | 59 | 1012.3 |
| 20260504050516 | 62 | 208 | 3.0 | 6.0 | 0.00 | 0.00 | 0.00 | 54 | 1013.7 |
| 20260504050017 | 62 | 195 | 3.0 | 8.0 | 0.00 | 0.00 | 0.00 | 53 | 1013.6 |
| 20260504045517 | 62 | 219 | 3.0 | 9.0 | 0.00 | 0.00 | 0.00 | 53 | 1013.7 |
| 20260504045017 | 62 | 216 | 3.0 | 7.0 | 0.00 | 0.00 | 0.00 | 53 | 1013.8 |
| 20260504044537 | 62 | 209 | 3.0 | 8.0 | 0.00 | 0.00 | 0.00 | 53 | 1013.7 |
| 20260504044017 | 62 | 217 | 3.0 | 8.0 | 0.00 | 0.00 | 0.00 | 53 | 1013.8 |
| 20260504043537 | 62 | 218 | 3.0 | 7.0 | 0.00 | 0.00 | 0.00 | 52 | 1013.8 |
| 20260504043015 | 62 | 221 | 4.0 | 9.0 | 0.00 | 0.00 | 0.00 | 52 | 1013.8 |
| 20260504042516 | 62 | 205 | 3.0 | 8.0 | 0.00 | 0.00 | 0.00 | 52 | 1013.8 |
| 20260504042016 | 62 | 201 | 3.0 | 7.0 | 0.00 | 0.00 | 0.00 | 52 | 1013.8 |
| 20260504041515 | 62 | 199 | 3.0 | 9.0 | 0.00 | 0.00 | 0.00 | 53 | 1013.8 |
| 20260504041016 | 61 | 207 | 3.0 | 6.0 | 0.00 | 0.00 | 0.00 | 54 | 1013.8 |
| 20260504040516 | 61 | 206 | 3.0 | 8.0 | 0.00 | 0.00 | 0.00 | 54 | 1013.9 |
| 20260504040016 | 61 | 181 | 2.0 | 5.0 | 0.00 | 0.00 | 0.00 | 55 | 1014.0 |
| 20260504035516 | 61 | 202 | 2.0 | 7.0 | 0.00 | 0.00 | 0.00 | 54 | 1014.0 |
| 20260504035016 | 61 | 201 | 3.0 | 6.0 | 0.00 | 0.00 | 0.00 | 54 | 1014.0 |
| 20260504034516 | 61 | 185 | 2.0 | 6.0 | 0.00 | 0.00 | 0.00 | 54 | 1014.1 |
| 20260504034016 | 61 | 186 | 2.0 | 6.0 | 0.00 | 0.00 | 0.00 | 54 | 1014.1 |
| 20260504033517 | 61 | 206 | 2.0 | 6.0 | 0.00 | 0.00 | 0.00 | 55 | 1014.1 |
| 20260504033036 | 61 | 202 | 3.0 | 7.0 | 0.00 | 0.00 | 0.00 | 55 | 1014.2 |
| 20260504032517 | 61 | 215 | 2.0 | 7.0 | 0.00 | 0.00 | 0.00 | 55 | 1014.2 |
| 20260504032017 | 60 | 183 | 2.0 | 6.0 | 0.00 | 0.00 | 0.00 | 55 | 1014.2 |
| 20260504031536 | 60 | 192 | 2.0 | 7.0 | 0.00 | 0.00 | 0.00 | 56 | 1014.2 |
| 20260504031017 | 60 | 181 | 1.0 | 4.0 | 0.00 | 0.00 | 0.00 | 56 | 1014.3 |
| 20260504030517 | 60 | 184 | 2.0 | 5.0 | 0.00 | 0.00 | 0.00 | 56 | 1014.3 |
| 20260504030017 | 60 | 178 | 2.0 | 4.0 | 0.00 | 0.00 | 0.00 | 56 | 1014.3 |
| 20260504025517 | 60 | 175 | 2.0 | 5.0 | 0.00 | 0.00 | 0.00 | 56 | 1014.2 |
| 20260504025037 | 60 | 170 | 2.0 | 3.0 | 0.00 | 0.00 | 0.00 | 56 | 1014.1 |
| 20260504024517 | 60 | 165 | 2.0 | 4.0 | 0.00 | 0.00 | 0.00 | 55 | 1014.1 |
| 20260504024017 | 60 | 164 | 2.0 | 6.0 | 0.00 | 0.00 | 0.00 | 56 | 1014.2 |
| 20260504023517 | 60 | 162 | 2.0 | 5.0 | 0.00 | 0.00 | 0.00 | 56 | 1014.3 |
| 20260504023017 | 60 | 164 | 2.0 | 4.0 | 0.00 | 0.00 | 0.00 | 56 | 1014.4 |
| 20260504022518 | 60 | 171 | 2.0 | 5.0 | 0.00 | 0.00 | 0.00 | 56 | 1014.4 |
| 20260504022017 | 61 | 161 | 1.0 | 4.0 | 0.00 | 0.00 | 0.00 | 55 | 1014.4 |
| 20260504021537 | 61 | 164 | 1.0 | 3.0 | 0.00 | 0.00 | 0.00 | 55 | 1014.4 |
| 20260504021018 | 61 | 165 | 1.0 | 4.0 | 0.00 | 0.00 | 0.00 | 55 | 1014.3 |
| 20260504020518 | 61 | 156 | 1.0 | 4.0 | 0.00 | 0.00 | 0.00 | 55 | 1014.4 |
| 20260504020018 | 61 | 160 | 1.0 | 3.0 | 0.00 | 0.00 | 0.00 | 54 | 1014.4 |
| 20260504015517 | 61 | 156 | 1.0 | 3.0 | 0.00 | 0.00 | 0.00 | 54 | 1014.4 |
| 20260504015018 | 62 | 165 | 1.0 | 4.0 | 0.00 | 0.00 | 0.00 | 53 | 1014.4 |
| 20260504014538 | 62 | 153 | 1.0 | 4.0 | 0.00 | 0.00 | 0.00 | 53 | 1014.4 |
| 20260504014018 | 62 | 154 | 1.0 | 3.0 | 0.00 | 0.00 | 0.00 | 52 | 1014.3 |
| 20260504013518 | 63 | 160 | 1.0 | 3.0 | 0.00 | 0.00 | 0.00 | 51 | 1014.3 |
| 20260504013015 | 63 | 157 | 2.0 | 4.0 | 0.00 | 0.00 | 0.00 | 50 | 1014.3 |
| 20260504012536 | 63 | 149 | 2.0 | 4.0 | 0.00 | 0.00 | 0.00 | 50 | 1014.2 |
| 20260504012015 | 63 | 149 | 2.0 | 4.0 | 0.00 | 0.00 | 0.00 | 50 | 1014.3 |
| 20260504011516 | 63 | 151 | 1.0 | 3.0 | 0.00 | 0.00 | 0.00 | 49 | 1014.3 |
| 20260504011016 | 64 | 146 | 1.0 | 2.0 | 0.00 | 0.00 | 0.00 | 49 | 1014.3 |
| 20260504010516 | 64 | 150 | 1.0 | 3.0 | 0.00 | 0.00 | 0.00 | 49 | 1014.3 |
| 20260504010016 | 65 | 148 | 1.0 | 3.0 | 0.00 | 0.00 | 0.00 | 48 | 1014.3 |
| 20260504005516 | 65 | 164 | 1.0 | 4.0 | 0.00 | 0.00 | 0.00 | 47 | 1014.2 |
| 20260504005016 | 65 | 185 | 2.0 | 6.0 | 0.00 | 0.00 | 0.00 | 47 | 1014.2 |
| 20260504004516 | 66 | 179 | 1.0 | 3.0 | 0.00 | 0.00 | 0.00 | 47 | 1014.1 |
| 20260504004016 | 66 | 162 | 2.0 | 7.0 | 0.00 | 0.00 | 0.00 | 46 | 1014.1 |
| 20260504003536 | 66 | 179 | 2.0 | 4.0 | 0.00 | 0.00 | 0.00 | 46 | 1014.1 |
| 20260504003016 | 67 | 196 | 2.0 | 5.0 | 0.00 | 0.00 | 0.00 | 45 | 1014.2 |
| 20260504002516 | 67 | 180 | 2.0 | 5.0 | 0.00 | 0.00 | 0.00 | 45 | 1014.2 |
| 20260504002017 | 68 | 197 | 2.0 | 6.0 | 0.00 | 0.00 | 0.00 | 44 | 1014.3 |
| 20260504001517 | 68 | 182 | 2.0 | 5.0 | 0.00 | 0.00 | 0.00 | 44 | 1014.3 |
| 20260504001017 | 68 | 179 | 2.0 | 7.0 | 0.00 | 0.00 | 0.00 | 43 | 1014.3 |
| 20260504000517 | 68 | 194 | 2.0 | 6.0 | 0.00 | 0.00 | 0.00 | 43 | 1014.2 |
| 20260504000017 | 69 | 183 | 3.0 | 10.0 | 0.00 | 0.00 | 0.00 | 42 | 1014.2 |
| 20260503235517 | 69 | 189 | 3.0 | 10.0 | 0.00 | 0.00 | 0.00 | 42 | 1014.2 |
| 20260503235017 | 69 | 219 | 3.0 | 8.0 | 0.00 | 0.00 | 0.00 | 42 | 1014.3 |
| 20260503234517 | 69 | 187 | 3.0 | 7.0 | 0.00 | 0.00 | 0.00 | 41 | 1014.4 |
| 20260503234017 | 70 | 201 | 3.0 | 6.0 | 0.00 | 0.00 | 0.00 | 41 | 1014.4 |
| 20260503233517 | 70 | 179 | 3.0 | 6.0 | 0.00 | 0.00 | 0.00 | 41 | 1014.4 |
| 20260503233017 | 70 | 189 | 3.0 | 6.0 | 0.00 | 0.00 | 0.00 | 41 | 1014.6 |
| 20260503232518 | 70 | 179 | 3.0 | 6.0 | 0.00 | 0.00 | 0.00 | 40 | 1014.7 |
| 20260503232018 | 70 | 202 | 3.0 | 7.0 | 0.00 | 0.00 | 0.00 | 40 | 1014.7 |
| 20260503231518 | 70 | 201 | 3.0 | 7.0 | 0.00 | 0.00 | 0.00 | 40 | 1014.8 |
| 20260503231018 | 70 | 216 | 3.0 | 6.0 | 0.00 | 0.00 | 0.00 | 40 | 1014.8 |
| 20260503230517 | 70 | 205 | 3.0 | 7.0 | 0.00 | 0.00 | 0.00 | 39 | 1014.8 |
| 20260503230038 | 70 | 199 | 3.0 | 7.0 | 0.00 | 0.00 | 0.00 | 39 | 1014.8 |
| 20260503225518 | 70 | 221 | 4.0 | 10.0 | 0.00 | 0.00 | 0.00 | 39 | 1014.8 |
| 20260503225018 | 70 | 194 | 4.0 | 7.0 | 0.00 | 0.00 | 0.00 | 39 | 1014.9 |
| 20260503224518 | 70 | 217 | 4.0 | 9.0 | 0.00 | 0.00 | 0.00 | 40 | 1015.0 |
| 20260503224018 | 70 | 246 | 4.0 | 10.0 | 0.00 | 0.00 | 0.00 | 40 | 1015.0 |
| 20260503223538 | 70 | 211 | 4.0 | 9.0 | 0.00 | 0.00 | 0.00 | 40 | 1015.0 |
| 20260503223016 | 70 | 161 | 3.0 | 7.0 | 0.00 | 0.00 | 0.00 | 40 | 1015.0 |
| 20260503222516 | 70 | 235 | 4.0 | 8.0 | 0.00 | 0.00 | 0.00 | 39 | 1015.1 |
| 20260503222015 | 71 | 200 | 5.0 | 12.0 | 0.00 | 0.00 | 0.00 | 39 | 1015.1 |
| 20260503221536 | 71 | 227 | 3.0 | 6.0 | 0.00 | 0.00 | 0.00 | 40 | 1015.1 |
| 20260503221036 | 70 | 219 | 3.0 | 7.0 | 0.00 | 0.00 | 0.00 | 40 | 1015.2 |
| 20260503220516 | 70 | 204 | 4.0 | 9.0 | 0.00 | 0.00 | 0.00 | 39 | 1015.2 |
| 20260503220016 | 70 | 203 | 4.0 | 8.0 | 0.00 | 0.00 | 0.00 | 40 | 1015.3 |
| 20260503215516 | 70 | 204 | 4.0 | 8.0 | 0.00 | 0.00 | 0.00 | 40 | 1015.4 |
| 20260503215016 | 70 | 204 | 4.0 | 8.0 | 0.00 | 0.00 | 0.00 | 40 | 1015.5 |
| 20260503214516 | 70 | 216 | 3.0 | 5.0 | 0.00 | 0.00 | 0.00 | 40 | 1015.6 |
| 20260503214016 | 70 | 163 | 4.0 | 9.0 | 0.00 | 0.00 | 0.00 | 40 | 1015.7 |
| 20260503213516 | 70 | 185 | 3.0 | 8.0 | 0.00 | 0.00 | 0.00 | 40 | 1015.7 |
| 20260503213016 | 70 | 238 | 5.0 | 9.0 | 0.00 | 0.00 | 0.00 | 40 | 1015.8 |
| 20260503212516 | 70 | 170 | 3.0 | 7.0 | 0.00 | 0.00 | 0.00 | 39 | 1015.8 |
| 20260503212017 | 70 | 206 | 3.0 | 8.0 | 0.00 | 0.00 | 0.00 | 40 | 1015.8 |
| 20260503211517 | 69 | 176 | 3.0 | 9.0 | 0.00 | 0.00 | 0.00 | 40 | 1016.0 |
| 20260503211017 | 69 | 214 | 4.0 | 11.0 | 0.00 | 0.00 | 0.00 | 40 | 1016.1 |
| 20260503210517 | 69 | 196 | 4.0 | 8.0 | 0.00 | 0.00 | 0.00 | 40 | 1016.1 |
| 20260503210017 | 69 | 265 | 6.0 | 11.0 | 0.00 | 0.00 | 0.00 | 40 | 1016.2 |
| 20260503205537 | 69 | 230 | 5.0 | 10.0 | 0.00 | 0.00 | 0.00 | 40 | 1016.3 |
| 20260503205037 | 69 | 239 | 5.0 | 10.0 | 0.00 | 0.00 | 0.00 | 39 | 1016.4 |
| 20260503204517 | 69 | 240 | 4.0 | 11.0 | 0.00 | 0.00 | 0.00 | 41 | 1016.5 |
| 20260503204038 | 70 | 241 | 6.0 | 13.0 | 0.00 | 0.00 | 0.00 | 40 | 1016.5 |
| 20260503203517 | 69 | 206 | 3.0 | 9.0 | 0.00 | 0.00 | 0.00 | 40 | 1016.6 |
| 20260503203017 | 69 | 206 | 3.0 | 8.0 | 0.00 | 0.00 | 0.00 | 41 | 1016.7 |
| 20260503202538 | 69 | 186 | 3.0 | 7.0 | 0.00 | 0.00 | 0.00 | 42 | 1016.8 |
| 20260503202018 | 69 | 186 | 5.0 | 10.0 | 0.00 | 0.00 | 0.00 | 41 | 1016.9 |
| 20260503201518 | 69 | 176 | 3.0 | 7.0 | 0.00 | 0.00 | 0.00 | 41 | 1017.0 |
| 20260503201018 | 68 | 202 | 3.0 | 9.0 | 0.00 | 0.00 | 0.00 | 42 | 1017.1 |
| 20260503200518 | 68 | 234 | 5.0 | 10.0 | 0.00 | 0.00 | 0.00 | 41 | 1017.3 |
| 20260503200038 | 68 | 216 | 4.0 | 9.0 | 0.00 | 0.00 | 0.00 | 41 | 1017.4 |
| 20260503195518 | 68 | 209 | 3.0 | 8.0 | 0.00 | 0.00 | 0.00 | 41 | 1017.5 |
| 20260503195018 | 68 | 193 | 4.0 | 9.0 | 0.00 | 0.00 | 0.00 | 42 | 1017.5 |
| 20260503194538 | 68 | 242 | 4.0 | 8.0 | 0.00 | 0.00 | 0.00 | 42 | 1017.6 |
| 20260503194018 | 68 | 239 | 5.0 | 10.0 | 0.00 | 0.00 | 0.00 | 41 | 1017.7 |
| 20260503193515 | 68 | 178 | 3.0 | 9.0 | 0.00 | 0.00 | 0.00 | 42 | 1017.8 |
| 20260503193036 | 67 | 222 | 3.0 | 10.0 | 0.00 | 0.00 | 0.00 | 42 | 1017.9 |
| 20260503192516 | 67 | 253 | 5.0 | 13.0 | 0.00 | 0.00 | 0.00 | 43 | 1017.9 |
| 20260503192016 | 67 | 255 | 4.0 | 7.0 | 0.00 | 0.00 | 0.00 | 42 | 1018.0 |
| 20260503191516 | 67 | 251 | 4.0 | 9.0 | 0.00 | 0.00 | 0.00 | 42 | 1018.2 |
| 20260503191016 | 67 | 226 | 5.0 | 8.0 | 0.00 | 0.00 | 0.00 | 42 | 1018.2 |
| 20260503190516 | 67 | 258 | 3.0 | 8.0 | 0.00 | 0.00 | 0.00 | 42 | 1018.3 |
| 20260503190036 | 67 | 274 | 4.0 | 9.0 | 0.00 | 0.00 | 0.00 | 44 | 1018.4 |
| 20260503185516 | 67 | 270 | 6.0 | 11.0 | 0.00 | 0.00 | 0.00 | 43 | 1018.4 |
| 20260503185036 | 67 | 250 | 4.0 | 8.0 | 0.00 | 0.00 | 0.00 | 42 | 1018.4 |
| 20260503184516 | 66 | 240 | 3.0 | 6.0 | 0.00 | 0.00 | 0.00 | 44 | 1018.5 |
| 20260503184016 | 66 | 205 | 4.0 | 8.0 | 0.00 | 0.01 | 0.00 | 42 | 1018.6 |
| 20260503183517 | 66 | 174 | 4.0 | 11.0 | 0.00 | 0.01 | 0.00 | 43 | 1018.6 |
| 20260503183017 | 66 | 265 | 4.0 | 13.0 | 0.00 | 0.01 | 0.00 | 44 | 1018.8 |
| 20260503182516 | 66 | 253 | 4.0 | 13.0 | 0.00 | 0.01 | 0.00 | 43 | 1018.8 |
| 20260503182017 | 66 | 220 | 4.0 | 9.0 | 0.00 | 0.01 | 0.00 | 44 | 1018.9 |
| 20260503181517 | 66 | 231 | 4.0 | 9.0 | 0.00 | 0.01 | 0.00 | 45 | 1018.9 |
| 20260503181017 | 66 | 224 | 4.0 | 11.0 | 0.00 | 0.01 | 0.00 | 43 | 1018.9 |
| 20260503180517 | 65 | 201 | 3.0 | 8.0 | 0.00 | 0.01 | 0.00 | 44 | 1018.9 |
| 20260503180017 | 65 | 228 | 3.0 | 6.0 | 0.00 | 0.01 | 0.00 | 44 | 1019.0 |
| 20260503175537 | 65 | 245 | 4.0 | 8.0 | 0.00 | 0.01 | 0.00 | 43 | 1019.1 |
| 20260503175057 | 65 | 199 | 3.0 | 8.0 | 0.00 | 0.01 | 0.00 | 44 | 1019.1 |
| 20260503174517 | 65 | 203 | 4.0 | 9.0 | 0.00 | 0.01 | 0.00 | 45 | 1019.1 |
| 20260503174017 | 65 | 162 | 3.0 | 9.0 | 0.00 | 0.01 | 0.00 | 45 | 1019.1 |
| 20260503173517 | 65 | 176 | 3.0 | 9.0 | 0.00 | 0.01 | 0.00 | 45 | 1019.3 |
| 20260503173017 | 65 | 204 | 4.0 | 10.0 | 0.00 | 0.01 | 0.00 | 45 | 1019.3 |
| 20260503172518 | 64 | 194 | 3.0 | 8.0 | 0.00 | 0.01 | 0.00 | 45 | 1019.3 |
| 20260503172018 | 64 | 178 | 3.0 | 8.0 | 0.00 | 0.01 | 0.00 | 44 | 1019.5 |
| 20260503171518 | 63 | 235 | 5.0 | 11.0 | 0.00 | 0.01 | 0.00 | 44 | 1019.6 |
| 20260503171018 | 63 | 254 | 4.0 | 10.0 | 0.00 | 0.01 | 0.00 | 48 | 1019.6 |
| 20260503170518 | 63 | 258 | 5.0 | 11.0 | 0.00 | 0.01 | 0.00 | 46 | 1019.7 |
| 20260503150517 | 59 | 183 | 3.0 | 7.0 | 0.00 | 0.01 | 0.00 | 56 | 1020.9 |
| 20260503131015 | 48 | 192 | 2.0 | 5.0 | 0.00 | 0.01 | 0.00 | 93 | 1021.1 |
| 20260503130516 | 47 | 207 | 1.0 | 4.0 | 0.00 | 0.01 | 0.00 | 96 | 1021.0 |